Regional Weather Roundup
Issued by NWS

Home | Current Version | Previous Version | Text Only | Print | Product List | Glossary On
Versions: 1 2 3 4 5 6 7 8 9 10 11 12 13 14 15 16 17 18 19 20 21 22 23 24 25 26 27 28 29 30 31 32 33 34 35 36 37 38 39 40 41 42 43 44 45 46 47 48 49 50
271
ASUS43 KLMK 301002
RWRKY
KENTUCKY REGIONAL WEATHER ROUNDUP
NATIONAL WEATHER SERVICE LOUISVILLE KY
600 AM EDT THU MAR 30 2017

NOTE "FAIR" INDICATES FEW OR NO CLOUDS BELOW 12,000 FEET
WITH NO SIGNIFICANT WEATHER AND/OR OBSTRUCTIONS TO VISIBILITY.

KYZ001>023-026-027-061>063-070>075-301100-
WESTERN AND SOUTH CENTRAL KENTUCKY

CITY           SKY/WX    TMP DP  RH WIND       PRES   REMARKS
PADUCAH        CLOUDY    71  55  56 S10G17    29.69S
HENDERSON      CLOUDY    63  54  72 SE10      29.71S
OWENSBORO      PTCLDY    62  55  77 SE12      29.73F
HOPKINSVILLE   CLOUDY    68  57  67 S8        29.76S
BOWLING GREEN  MOCLDY    65  56  72 SE6       29.80F
GLASGOW        NOT AVBL
$$

KYZ024-025-028>034-038-045-046-053-301100-
NORTH CENTRAL KENTUCKY

CITY           SKY/WX    TMP DP  RH WIND       PRES   REMARKS
LOUISVILLE/SDF CLOUDY    56  46  69 SE6       29.80F
LOUISVILLE/LOU CLOUDY    56  47  71 SE3       29.81F
FORT KNOX      CLOUDY    55  49  81 E5        29.79S
$$

KYZ035>037-039>044-047>052-055>060-089>105-301100-
NORTHEAST KENTUCKY

CITY           SKY/WX    TMP DP  RH WIND       PRES   REMARKS
LEXINGTON      PTCLDY    54  45  71 SE10      29.85F
COVINGTON      LGT RAIN  52  46  80 SE8       29.85F
FRANKFORT      MOCLDY    53  45  74 SE3       29.83F
$$

KYZ054-064>069-076>088-106>120-301100-
SOUTHEAST KENTUCKY

CITY           SKY/WX    TMP DP  RH WIND       PRES   REMARKS
JACKSON        PTCLDY    52  46  80 SE5       29.91F
LONDON         PTCLDY    55  47  74 CALM      29.90F
SOMERSET       MOCLDY    54  48  82 CALM      29.90F
MIDDLESBORO    PTCLDY    51  50  96 CALM      29.95S
MONTICELLO     PTSUNNY   61  52  72 NE6       29.89F
$$





USA.gov is the U.S. government's official web portal to all federal, state and local government web resources and services.